User: anonymous   Login
Location: Unspecified
(0.0000°N, 0.0000°E)
Time: 07:58:27
(UTC+00:00)
Language:

Envisat - Orbit

View from above orbital plane
View from above orbital plane
View from above satellite
View from above satellite

Ground track
Ground track

The orbit data is extracted from the following two-line orbital elements,

1 27386U 02009A   17021.83681184 -.00000023  00000-0  61838-5 0  9994
2 27386  98.2528  73.0672 0001113  79.1063 281.0236 14.37886510780043
Epoch (UTC): 21 January 2017 20:05:00
Eccentricity: 0.0001113
inclination: 98.2528°
perigee height: 764 km
apogee height: 766 km
right ascension of ascending node: 73.0672°
argument of perigee: 79.1063°
revolutions per day: 14.37886510
mean anomaly at epoch: 281.0236°
orbit number at epoch: 78004

The dashed part of the orbit path shows where the satellite is in the earth's shadow,  

DLR